DateTimeUTC,F1_A11,F1_S11,BsB_S11,BsG_S11,BsR_S11,BbsB_S11,BbsG_S11,BbsR_S11,BaB_A11,BaG_A11,BaR_A11,Tu_S11,T_S11,Uu_S11,U_S11,P_S11,T1_A11
2021-09-08T23:00:00Z,00000200,21000000,,,,,,,0000.09,0000.33,0000.11,17.6,24.9,,00.0,0661.9,30.9
2021-09-08T23:01:00Z,00000200,21000000,,,,,,,-000.21,-000.64,-000.31,17.6,24.9,,00.0,0661.9,30.9
2021-09-08T23:02:00Z,00000200,21000000,,,,,,,-000.16,0000.27,0000.23,17.6,24.9,,00.0,0661.9,30.9
2021-09-08T23:03:00Z,00000200,61000000,,,,,,,0000.04,0000.01,-000.16,17.6,25.0,,00.0,0661.9,31.0
2021-09-08T23:04:00Z,00000200,41000000,0000.74,0001.42,0000.91,0000.49,0000.35,0000.25,0000.33,0000.24,0000.20,18.1,24.9,,00.0,0662.8,31.0
2021-09-08T23:05:00Z,00000200,01000000,0001.63,0001.43,0000.45,0000.06,-000.04,-000.12,0000.20,0000.07,0000.00,18.2,24.8,,00.0,0662.9,31.0
2021-09-08T23:06:00Z,00000200,01000000,0001.96,0001.86,0000.91,0000.47,0000.11,0000.15,0000.28,0000.71,0000.47,18.2,24.8,,00.0,0662.9,31.0
2021-09-08T23:07:00Z,00000200,01000000,0001.52,0002.00,0000.84,-000.14,0000.21,0000.11,0000.15,0000.13,0000.05,18.2,24.8,,00.0,0662.9,31.0
2021-09-08T23:08:00Z,00000200,01000000,0001.55,0001.63,0000.89,0000.10,0000.31,0000.08,0000.13,0000.24,0000.32,18.1,24.8,,00.0,0662.9,31.0
2021-09-08T23:09:00Z,00000200,01000000,0001.87,0001.40,0001.03,0000.75,0000.33,0000.41,0000.32,-000.07,0000.16,18.0,24.8,,00.0,0662.9,30.9
2021-09-08T23:10:00Z,00000200,01000000,0001.20,0001.24,0000.36,0000.39,-000.12,-000.07,0000.16,0000.07,-000.19,18.0,24.7,,00.0,0662.9,30.9
2021-09-08T23:11:00Z,00000200,01000000,0000.82,0000.78,0000.67,0000.32,0000.26,0000.21,0000.32,0000.12,0000.17,17.9,24.6,,00.0,0662.9,30.9
2021-09-08T23:12:00Z,00000200,01000000,0000.98,0001.03,0000.68,0000.66,-000.01,0000.02,0000.07,0000.65,0000.56,17.9,24.7,,00.0,0662.9,30.9
2021-09-08T23:13:00Z,00000200,01000000,0000.91,0001.49,0000.48,0000.52,0000.00,0000.47,0000.26,0000.07,-000.01,18.0,24.7,,00.0,0662.9,30.9
2021-09-08T23:14:00Z,00000200,01000000,0000.77,0001.39,0000.52,0000.53,0000.06,0000.16,0000.42,-000.03,0000.42,18.0,24.7,,00.0,0662.9,30.9
2021-09-08T23:15:00Z,00000200,01000000,0001.16,0000.99,0000.73,0000.54,0000.10,0000.15,-000.01,0000.09,-000.17,18.1,24.7,,00.0,0662.9,31.0
2021-09-08T23:16:00Z,00000200,01000000,0001.19,0001.48,0000.87,0000.55,0000.05,0000.42,0000.45,0000.44,0000.46,18.2,24.7,,00.0,0662.9,30.9
2021-09-08T23:17:00Z,00000200,01000000,0002.06,0001.36,0000.43,0000.24,-000.02,-000.12,0000.13,0000.34,0000.03,18.2,24.8,,00.0,0662.9,30.9
2021-09-08T23:18:00Z,00000200,01000000,0001.65,0001.48,0000.84,0000.32,0000.08,0000.03,0000.17,0000.27,0000.56,18.3,24.8,,00.0,0663.0,31.0
2021-09-08T23:19:00Z,00000200,01000000,0001.40,0001.28,0000.92,-000.28,0000.04,0000.35,0000.22,0000.18,-000.22,18.3,24.8,,00.0,0662.9,31.0
2021-09-08T23:20:00Z,00000200,01000000,0001.98,0001.69,0001.08,0000.15,0000.25,-000.15,0000.50,0000.33,0000.50,18.3,24.8,,00.0,0662.9,31.0
2021-09-08T23:21:00Z,00000200,01000000,0001.24,0001.90,0000.93,0000.53,0000.48,0000.09,-000.05,0000.26,-000.21,18.2,24.8,,00.0,0662.9,30.9
2021-09-08T23:22:00Z,00000200,01000000,0001.51,0001.29,0000.86,0001.20,0000.26,0000.01,0000.09,0000.11,0000.32,18.1,24.8,,00.0,0662.9,30.9
2021-09-08T23:23:00Z,00000200,01000000,0001.86,0001.32,0000.77,0000.92,0000.11,0000.01,0000.35,0000.06,0000.05,18.0,24.7,,00.0,0662.9,30.9
2021-09-08T23:24:00Z,00000200,01000000,0001.19,0001.17,0000.67,0000.88,-000.03,0000.40,0000.11,0000.35,0000.22,17.9,24.6,,00.0,0662.9,30.9
2021-09-08T23:25:00Z,00000200,01000000,0001.24,0001.14,0000.59,0000.72,0000.17,0000.10,0000.46,0000.05,0000.39,17.8,24.6,,00.0,0662.8,30.9
2021-09-08T23:26:00Z,00000200,01000000,0001.22,0001.50,0000.37,0000.47,0000.07,0000.37,0000.40,0000.04,0000.19,17.8,24.5,,00.0,0662.9,30.9
2021-09-08T23:27:00Z,00000200,01000000,0002.04,0001.29,0000.65,0000.80,0000.16,0000.11,0000.32,0000.75,0000.18,17.8,24.5,,00.0,0662.9,30.9
2021-09-08T23:28:00Z,00000200,01000000,0000.95,0001.21,0000.58,0000.05,0000.40,0000.07,0000.56,0000.75,0000.40,17.9,24.5,,00.0,0662.9,30.9
2021-09-08T23:29:00Z,00000200,01000000,0001.58,0001.22,0000.64,-000.07,0000.00,0000.04,0000.37,0000.03,0000.23,17.9,24.5,,00.0,0662.9,30.9
2021-09-08T23:30:00Z,00000200,01000000,0000.88,0001.39,0000.53,0000.85,0000.10,0000.12,-000.00,-000.04,0000.00,18.0,24.6,,00.0,0662.9,30.9
2021-09-08T23:31:00Z,00000200,01000000,0001.27,0002.00,0000.79,0000.18,0000.01,0000.18,0000.07,0000.37,0000.77,18.0,24.6,,00.0,0662.9,31.0
2021-09-08T23:32:00Z,00000200,01000000,0001.81,0001.56,0000.59,0000.96,0000.24,0000.05,0000.50,0000.41,-000.38,18.1,24.7,,00.0,0662.9,30.9
2021-09-08T23:33:00Z,00000200,01000000,0001.10,0001.23,0000.38,0000.18,0000.10,-000.12,0000.12,-000.07,0000.48,18.1,24.7,,00.0,0662.9,30.9
2021-09-08T23:34:00Z,00000200,01000000,0000.86,0001.01,0000.45,-000.04,0000.18,0000.03,0000.40,0000.44,-000.05,18.2,24.7,,00.0,0662.9,30.9
2021-09-08T23:35:00Z,00000200,01000000,0001.10,0000.95,0000.24,0000.22,0000.06,0000.20,-000.02,-000.42,0000.23,18.2,24.7,,00.0,0662.9,31.0
2021-09-08T23:36:00Z,00000200,01000000,0001.00,0000.90,0000.29,0000.25,0000.17,-000.29,0000.02,0000.40,-000.20,18.2,24.7,,00.0,0662.9,31.0
2021-09-08T23:37:00Z,00000200,01000000,0000.84,0000.67,0000.33,0000.00,0000.12,0000.23,-000.00,0000.11,-000.23,18.1,24.7,,00.0,0662.9,31.0
2021-09-08T23:38:00Z,00000200,01000000,0000.73,0000.68,0000.33,0000.08,0000.37,0000.11,-000.11,-000.33,0000.13,18.0,24.6,,00.0,0662.9,30.9
2021-09-08T23:39:00Z,00000200,01000000,0000.72,0000.99,0000.53,0000.24,0000.63,0000.17,0000.04,-000.24,-000.16,17.9,24.6,,00.0,0662.9,30.9
2021-09-08T23:40:00Z,00000200,01000000,0000.35,0000.55,0000.53,0000.62,0000.18,0000.09,0000.07,0000.44,0000.19,17.8,24.5,,00.0,0662.9,30.9
2021-09-08T23:41:00Z,00000200,01000000,0000.69,0000.79,0000.22,0000.51,0000.28,0000.12,-000.11,0000.14,0000.29,17.8,24.5,,00.0,0662.9,30.9
2021-09-08T23:42:00Z,00000200,01000000,0000.90,0000.37,0000.37,-000.24,0000.18,0000.25,0000.56,0000.12,0000.31,17.8,24.5,,00.0,0662.9,30.9
2021-09-08T23:43:00Z,00000200,01000000,0001.06,0000.66,0000.43,0000.67,-000.18,0000.05,0000.27,0000.36,0000.22,17.9,24.5,,00.0,0662.9,30.9
2021-09-08T23:44:00Z,00000200,01000000,0000.78,0000.77,0000.34,0001.00,0000.25,0000.05,0000.21,-000.11,-000.20,17.9,24.6,,00.0,0662.9,30.9
2021-09-08T23:45:00Z,00000200,01000000,0001.29,0000.96,0000.28,0000.57,0000.04,0000.34,0000.21,0000.08,0000.46,18.0,24.5,,00.0,0662.9,30.9
2021-09-08T23:46:00Z,00000200,01000000,0001.00,0001.13,0000.22,0000.34,0000.31,-000.13,0000.15,0000.52,-000.05,18.0,24.6,,00.0,0662.9,30.9
2021-09-08T23:47:00Z,00000200,01000000,0001.40,0001.03,0000.41,0000.31,-000.19,0000.17,0000.06,0000.07,0000.16,18.1,24.6,,00.0,0662.9,30.9
2021-09-08T23:48:00Z,00000200,01000000,0000.31,0000.61,0000.29,-000.45,0000.27,-000.10,0000.25,0000.37,0000.11,18.1,24.6,,00.0,0662.9,30.9
2021-09-08T23:49:00Z,00000200,01000000,0000.57,0001.02,0000.36,0000.09,0000.26,-000.07,0000.26,0000.04,0000.09,18.2,24.6,,00.0,0662.9,30.9
2021-09-08T23:50:00Z,00000200,01000000,0001.04,0000.93,0000.44,0000.56,0000.17,-000.11,0000.09,0000.07,0000.21,18.2,24.7,,00.0,0662.9,30.9
2021-09-08T23:51:00Z,00000200,01000000,0000.99,0000.78,0000.29,0000.12,0000.12,0000.13,0000.02,0000.21,-000.05,18.2,24.7,,00.0,0662.9,30.9
2021-09-08T23:52:00Z,00000200,01000000,0001.40,0001.24,0000.60,0000.19,-000.07,0000.33,-000.21,-000.03,0000.10,18.1,24.6,,00.0,0662.8,30.9
2021-09-08T23:53:00Z,00000200,01000000,0000.62,0000.84,0000.39,0000.53,0000.26,0000.07,0000.50,0000.24,-000.24,18.0,24.6,,00.0,0662.8,30.9
2021-09-08T23:54:00Z,00000200,01000000,0001.42,0001.16,0000.55,0000.90,0000.14,0000.28,0000.04,0000.28,0000.37,17.9,24.5,,00.0,0662.8,30.9
2021-09-08T23:55:00Z,00000200,01000000,0000.13,0001.16,0000.71,-000.15,0000.19,-000.01,0000.41,0000.26,0000.49,17.8,24.5,,00.0,0662.8,30.9
2021-09-08T23:56:00Z,00000200,01000000,0000.58,0001.31,0000.54,0000.44,0000.13,0000.08,0000.46,0000.40,0000.37,17.8,24.5,,00.0,0662.8,30.9
2021-09-08T23:57:00Z,00000200,41000000,,,,,,,0001.29,0001.00,0000.79,17.8,24.5,,00.0,0662.8,30.9
2021-09-08T23:58:00Z,00000200,61000000,,,,,,,-000.27,-000.43,-000.26,17.4,24.7,,00.0,0661.8,30.9
2021-09-08T23:59:00Z,00000200,21000000,,,,,,,-000.29,0000.07,-000.24,17.4,24.8,,00.0,0661.8,30.9
